Flag for U.S.A. Weather past 2 weeks in Huntington Beach, California, U.S.A.

71 °F


Feels Like: 75 °F
Forecast: 65 / 70 °F
Wind: 12 mph from Southeast

Location: John Wayne Airport-Orange County Airport

Current Time: Oct 4, 2015 at 2:18:23 AM

Latest Report: Oct 4, 2015 at 1:53 AM

Visibility: 10 mi

Pressure: 29.59 "Hg

Humidity: 66%

Dew point: 59 °F

Location of Huntington BeachLocation

Historic Weather in Huntington Beach — Graph


Huntington Beach temperature yesterday

Maximum temperature yesterday: 79 °F (at 2:53 PM)
Minimum temperature yesterday: 65 °F (at 4:53 AM)
Average temperature yesterday: 71 °F

Past Weeks' High & Low Weather Summary

High96 °F (Sep 20, 1:53 PM)100% (Sep 26, 4:01 AM)29.93 "Hg (Sep 26, 4:01 AM)
Low65 °F (Sep 29, 5:53 AM)32% (Sep 20, 3:53 PM)29.55 "Hg (Oct 3, 6:53 PM)
Average75 °F73%29.82 "Hg
* Reported Sep 19 12:53 AM — Oct 4 12:53 AM, Huntington Beach, Weather by CustomWeather, © 2015

Note: Actual official high and low records may vary slightly from our data, if they occured in-between our weather recording intervals... More about our weather records


Huntington Beach weather history for previous 24 hours

Time TempWeatherWind HumidityBarometerVisibility
12:53 AM
Sun, Oct 4
70 °FOvercast.7 mph68%29.59 "Hg10 mi
11:53 PM
Sat, Oct 3
71 °FOvercast.12 mph66%29.59 "Hg10 mi
10:53 PM70 °FPassing clouds.7 mph73%29.59 "Hg9 mi
9:53 PM69 °FPassing clouds.7 mph76%29.59 "Hg9 mi
8:53 PM70 °FPassing clouds.9 mph76%29.58 "Hg9 mi
7:53 PM70 °FPassing clouds.8 mph79%29.57 "Hg9 mi
6:53 PM71 °FScattered clouds.10 mph76%29.55 "Hg10 mi
5:53 PM73 °FScattered clouds.12 mph74%29.56 "Hg10 mi
4:53 PM74 °FScattered clouds.14 mph71%29.57 "Hg10 mi
3:53 PM77 °FScattered clouds.10 mph56%29.57 "Hg10 mi
2:53 PM79 °FPassing clouds.13 mph50%29.57 "Hg10 mi
1:53 PM78 °FPassing clouds.12 mph62%29.60 "Hg10 mi
12:53 PM78 °FPassing clouds.10 mph62%29.62 "Hg10 mi
11:53 AM76 °FPassing clouds.10 mph67%29.65 "Hg10 mi
10:53 AM74 °FPassing clouds.9 mph71%29.67 "Hg10 mi
9:53 AM74 °FPassing clouds.7 mph74%29.68 "Hg10 mi
8:53 AM72 °FPassing clouds.No wind73%29.68 "Hg10 mi
7:53 AM68 °FSunny.No wind73%29.68 "Hg10 mi
6:53 AM65 °FPassing clouds.No wind78%29.68 "Hg10 mi
5:53 AM65 °FPassing clouds.No wind78%29.69 "Hg10 mi
4:53 AM65 °FClear.No wind78%29.68 "Hg10 mi
3:53 AM66 °FClear.No wind78%29.70 "Hg10 mi
2:53 AM67 °FClear.No wind76%29.71 "Hg10 mi
Weather by CustomWeather, © 2015

See weather overviewHow to use our weather pages